K4PAD Weather Reports


Display with metric or nautical units.
time (UTC)temp
F
wind
direction
speed
MPH
gust
MPH
rain 1hr
in
rain 24hr
in
rain mn
in
humidity
%
barometer
mb
20260504214226 79 90 2.0 2.0 0.00 0.00 0.00 42 1016.8
20260504213723 79 82 2.0 3.0 0.00 0.00 0.00 42 1016.9
20260504213220 80 78 4.0 6.0 0.00 0.00 0.00 43 1016.8
20260504212717 79 53 1.0 1.0 0.00 0.00 0.00 43 1016.7
20260504212214 80 200 1.0 2.0 0.00 0.00 0.00 41 1016.9
20260504211711 79 124 1.0 1.0 0.00 0.00 0.00 43 1017.0
20260504211207 80 109 2.0 5.0 0.00 0.00 0.00 41 1017.3
20260504210704 80 51 1.0 1.0 0.00 0.00 0.00 40 1016.9
20260504210201 80 105 2.0 2.0 0.00 0.00 0.00 41 1017.0
20260504205658 80 81 0.0 1.0 0.00 0.00 0.00 41 1017.0
20260504205155 81 80 2.0 3.0 0.00 0.00 0.00 40 1017.0
20260504204654 81 82 1.0 1.0 0.00 0.00 0.00 38 1017.2
20260504204153 80 100 1.0 1.0 0.00 0.00 0.00 40 1017.4
20260504203651 80 93 0.0 1.0 0.00 0.00 0.00 41 1017.3
20260504203149 80 155 2.0 2.0 0.00 0.00 0.00 39 1017.2
20260504202649 80 95 1.0 2.0 0.00 0.00 0.00 40 1017.2
20260504202146 80 78 1.0 2.0 0.00 0.00 0.00 40 1017.2
20260504201643 79 24 1.0 1.0 0.00 0.00 0.00 41 1017.3
20260504201141 80 54 1.0 1.0 0.00 0.00 0.00 40 1017.3
20260504200637 80 81 0.0 1.0 0.00 0.00 0.00 39 1017.3
20260504200134 82 18 2.0 3.0 0.00 0.00 0.00 37 1017.3
20260504195630 81 222 3.0 3.0 0.00 0.00 0.00 35 1017.5
20260504195126 81 166 1.0 1.0 0.00 0.00 0.00 33 1017.4
20260504194623 81 60 1.0 1.0 0.00 0.00 0.00 33 1017.6
20260504194119 81 151 2.0 2.0 0.00 0.00 0.00 34 1017.6
20260504193615 82 269 3.0 3.0 0.00 0.00 0.00 35 1017.6
20260504193114 82 68 2.0 2.0 0.00 0.00 0.00 35 1017.8
20260504192612 81 50 0.0 1.0 0.00 0.00 0.00 35 1018.0
20260504192110 81 80 1.0 2.0 0.00 0.00 0.00 35 1017.8
20260504191608 82 136 2.0 2.0 0.00 0.00 0.00 34 1017.9
20260504191104 80 58 3.0 3.0 0.00 0.00 0.00 36 1017.9
20260504190600 80 65 0.0 0.0 0.00 0.00 0.00 36 1017.9
20260504190056 80 292 1.0 2.0 0.00 0.00 0.00 34 1018.2
20260504185553 80 46 0.0 1.0 0.00 0.00 0.00 38 1018.3
20260504185050 80 89 3.0 3.0 0.00 0.00 0.00 35 1018.4
20260504184545 80 49 2.0 2.0 0.00 0.00 0.00 34 1018.2
20260504184041 79 86 4.0 6.0 0.00 0.00 0.00 36 1018.3
20260504183538 80 120 2.0 2.0 0.00 0.00 0.00 34 1018.3
20260504183036 80 80 1.0 1.0 0.00 0.00 0.00 33 1018.7
20260504182533 80 64 3.0 5.0 0.00 0.00 0.00 33 1018.7
20260504182030 80 85 3.0 3.0 0.00 0.00 0.00 34 1018.7
20260504181527 79 17 1.0 1.0 0.00 0.00 0.00 33 1018.6
20260504181025 79 49 4.0 5.0 0.00 0.00 0.00 34 1018.6
20260504180524 80 32 3.0 3.0 0.00 0.00 0.00 33 1018.7
20260504180023 80 89 3.0 3.0 0.00 0.00 0.00 33 1018.7
20260504175519 79 101 1.0 2.0 0.00 0.00 0.00 33 1018.5
20260504175016 80 118 0.0 0.0 0.00 0.00 0.00 32 1018.7
20260504174514 79 160 1.0 1.0 0.00 0.00 0.00 32 1018.9
20260504174011 79 138 1.0 2.0 0.00 0.00 0.00 31 1018.9
20260504173508 79 107 2.0 2.0 0.00 0.00 0.00 32 1019.0
20260504173005 79 54 2.0 5.0 0.00 0.00 0.00 34 1019.0
20260504172501 80 50 1.0 1.0 0.00 0.00 0.00 32 1019.0
20260504171957 80 74 2.0 3.0 0.00 0.00 0.00 32 1019.0
20260504171454 80 206 0.0 1.0 0.00 0.00 0.00 32 1019.2
20260504170951 80 204 1.0 1.0 0.00 0.00 0.00 31 1019.0
20260504170447 79 66 2.0 3.0 0.00 0.00 0.00 32 1019.4
20260504160407 78 66 0.0 1.0 0.00 0.00 0.00 37 1019.7
20260504150831 76 78 1.0 2.0 0.00 0.00 0.00 37 1019.6
20260504150328 76 107 1.0 1.0 0.00 0.00 0.00 39 1020.0
20260504141258 75 65 1.0 1.0 0.00 0.00 0.00 41 1019.8
20260504140754 75 95 0.0 0.0 0.00 0.00 0.00 44 1019.8
20260504140250 74 67 0.0 0.0 0.00 0.00 0.00 43 1020.1
20260504130719 70 89 0.0 0.0 0.00 0.00 0.00 67 1019.9
20260504130215 70 103 2.0 2.0 0.00 0.00 0.00 66 1020.0
20260504120139 57 53 0.0 0.0 0.00 0.00 0.00 99 1019.6
20260504110606 52 42 0.0 0.0 0.00 0.00 0.00 98 1019.0
20260504100528 52 45 0.0 0.0 0.00 0.00 0.00 98 1018.8
20260504081916 53 45 0.0 0.0 0.00 0.00 0.00 96 1018.9
20260504081412 53 50 0.0 0.0 0.00 0.00 0.00 96 1018.8
20260504080908 54 50 0.0 0.0 0.00 0.00 0.00 96 1019.0
20260504080405 54 44 0.0 0.0 0.00 0.00 0.00 96 1018.7
20260504070332 54 41 0.0 0.0 0.00 0.00 0.00 95 1019.0
20260504050715 56 41 0.0 0.0 0.00 0.00 0.00 92 1020.1
20260504050207 56 43 0.0 0.0 0.00 0.00 0.00 92 1020.1
20260504045704 56 45 0.0 0.0 0.00 0.00 0.00 91 1020.0
20260504045203 56 45 0.0 0.0 0.00 0.00 0.00 91 1020.2
20260504044701 56 43 0.0 0.0 0.00 0.00 0.00 91 1020.1
20260504044158 56 47 0.0 0.0 0.00 0.00 0.00 91 1020.4
20260504043655 57 46 0.0 0.0 0.00 0.00 0.00 91 1020.2
20260504043152 57 50 0.0 0.0 0.00 0.00 0.00 91 1020.1
20260504042650 57 62 0.0 0.0 0.00 0.00 0.00 91 1020.3
20260504042146 56 52 0.0 0.0 0.00 0.00 0.00 90 1020.3
20260504041642 57 51 0.0 0.0 0.00 0.00 0.00 90 1020.1
20260504041138 57 49 0.0 0.0 0.00 0.00 0.00 90 1020.1
20260504040635 57 52 0.0 0.0 0.00 0.00 0.00 89 1020.2
20260504040132 57 52 0.0 0.0 0.00 0.00 0.00 89 1020.1
20260504035629 57 48 0.0 0.0 0.00 0.00 0.00 89 1020.3
20260504035125 58 48 0.0 0.0 0.00 0.00 0.00 89 1020.2
20260504034624 58 55 0.0 0.0 0.00 0.00 0.00 89 1020.2
20260504034120 58 51 0.0 0.0 0.00 0.00 0.00 89 1020.3
20260504033618 57 54 0.0 0.0 0.00 0.00 0.00 88 1020.2
20260504033115 58 54 0.0 0.0 0.00 0.00 0.00 87 1020.0
20260504032612 58 54 0.0 0.0 0.00 0.00 0.00 87 1020.0
20260504032109 58 54 0.0 0.0 0.00 0.00 0.00 86 1020.0
20260504031606 58 62 0.0 0.0 0.00 0.00 0.00 86 1020.2
20260504031102 58 56 0.0 0.0 0.00 0.00 0.00 85 1020.0
20260504030559 59 61 0.0 0.0 0.00 0.00 0.00 85 1020.2
20260504030055 59 61 0.0 0.0 0.00 0.00 0.00 84 1020.2
20260504025553 59 61 0.0 0.0 0.00 0.00 0.00 84 1020.3
20260504025049 59 62 0.0 0.0 0.00 0.00 0.00 83 1020.2
20260504024547 60 62 0.0 0.0 0.00 0.00 0.00 83 1020.1
20260504024043 60 63 0.0 0.0 0.00 0.00 0.00 82 1020.1
20260504023540 60 64 0.0 0.0 0.00 0.00 0.00 81 1020.2
20260504023036 60 63 0.0 0.0 0.00 0.00 0.00 81 1020.2
20260504022532 60 58 0.0 0.0 0.00 0.00 0.00 79 1020.0
20260504022028 60 58 0.0 0.0 0.00 0.00 0.00 77 1019.8
20260504021526 61 58 0.0 0.0 0.00 0.00 0.00 76 1020.0
20260504021023 61 58 0.0 0.0 0.00 0.00 0.00 76 1019.8
20260504020520 62 56 0.0 0.0 0.00 0.00 0.00 75 1019.9
20260504020016 62 65 0.0 0.0 0.00 0.00 0.00 74 1019.7
20260504015513 62 63 0.0 0.0 0.00 0.00 0.00 73 1019.5
20260504015009 63 59 0.0 0.0 0.00 0.00 0.00 71 1019.4
20260504014504 63 69 0.0 0.0 0.00 0.00 0.00 70 1019.4
20260504014002 63 65 0.0 0.0 0.00 0.00 0.00 69 1019.6
20260504013500 63 67 0.0 0.0 0.00 0.00 0.00 68 1019.4
20260504012955 64 61 0.0 0.0 0.00 0.00 0.00 67 1019.3
20260504012454 64 60 0.0 0.0 0.00 0.00 0.00 66 1019.2
20260504011952 64 76 1.0 1.0 0.00 0.00 0.00 65 1019.1
20260504011447 65 69 0.0 0.0 0.00 0.00 0.00 64 1018.8
20260504010944 65 76 1.0 1.0 0.00 0.00 0.00 63 1019.0
20260504010440 65 67 0.0 1.0 0.00 0.00 0.00 61 1018.8
20260504005936 66 86 0.0 1.0 0.00 0.00 0.00 60 1018.9
20260504005433 66 101 1.0 1.0 0.00 0.00 0.00 59 1019.0
20260504004930 66 96 1.0 1.0 0.00 0.00 0.00 59 1018.8
20260504004428 66 92 1.0 1.0 0.00 0.00 0.00 58 1018.9
20260504003925 67 94 1.0 1.0 0.00 0.00 0.00 56 1018.8
20260504003421 67 85 1.0 2.0 0.00 0.00 0.00 56 1018.7
20260504002918 67 83 1.0 1.0 0.00 0.00 0.00 54 1018.7
20260504002415 67 75 0.0 0.0 0.00 0.00 0.00 53 1018.7
20260504001912 68 82 2.0 2.0 0.00 0.00 0.00 52 1018.6
20260504001410 68 84 1.0 1.0 0.00 0.00 0.00 51 1018.8
20260504000906 68 83 1.0 1.0 0.00 0.00 0.00 49 1018.7
20260504000403 68 78 1.0 2.0 0.00 0.00 0.00 49 1018.7
20260503235901 69 97 3.0 3.0 0.00 0.00 0.00 48 1018.5
20260503235359 69 72 1.0 1.0 0.00 0.00 0.00 47 1018.6
20260503234855 69 87 2.0 2.0 0.00 0.00 0.00 47 1018.9
20260503234353 70 69 0.0 1.0 0.00 0.00 0.00 47 1018.8
20260503233851 70 70 1.0 1.0 0.00 0.00 0.00 47 1018.7
20260503233347 71 89 1.0 1.0 0.00 0.00 0.00 46 1018.8
20260503232843 71 57 0.0 0.0 0.00 0.00 0.00 47 1018.8
20260503232341 71 82 1.0 1.0 0.00 0.00 0.00 46 1019.0
20260503231839 71 83 1.0 2.0 0.00 0.00 0.00 47 1018.7
20260503231335 71 69 1.0 1.0 0.00 0.00 0.00 49 1018.7
20260503230831 71 58 0.0 1.0 0.00 0.00 0.00 47 1018.7
20260503230329 72 61 0.0 0.0 0.00 0.00 0.00 47 1018.8
20260503225826 72 69 1.0 1.0 0.00 0.00 0.00 46 1018.5
20260503225322 72 55 1.0 2.0 0.00 0.00 0.00 47 1018.4
20260503224818 72 48 1.0 1.0 0.00 0.00 0.00 46 1018.4
20260503224316 72 63 1.0 2.0 0.00 0.00 0.00 47 1018.6
20260503223813 72 55 0.0 1.0 0.00 0.00 0.00 45 1018.6
20260503223311 72 69 0.0 0.0 0.00 0.00 0.00 45 1018.5
20260503222806 73 86 2.0 2.0 0.00 0.00 0.00 44 1018.3
20260503222305 74 77 1.0 2.0 0.00 0.00 0.00 43 1018.5
20260503221803 73 65 0.0 0.0 0.00 0.00 0.00 46 1018.5
20260503221300 73 68 1.0 1.0 0.00 0.00 0.00 44 1018.6
20260503220757 73 40 1.0 1.0 0.00 0.00 0.00 44 1018.5
20260503220254 75 78 1.0 1.0 0.00 0.00 0.00 43 1018.5
20260503215750 75 68 0.0 1.0 0.00 0.00 0.00 44 1018.6
20260503215248 74 48 0.0 0.0 0.00 0.00 0.00 43 1018.4
20260503214746 74 83 3.0 5.0 0.00 0.00 0.00 43 1018.4